Year,Month,Day,Hour,Minute,Value (Times are PST for temperature in C)
2011,11,21,00,02,3.80
2011,11,21,00,03,3.80
2011,11,21,00,05,3.80
2011,11,21,00,06,3.80
2011,11,21,00,07,3.80
2011,11,21,00,08,3.70
2011,11,21,00,09,3.70
2011,11,21,00,11,3.70
2011,11,21,00,12,3.70
2011,11,21,00,13,3.70
2011,11,21,00,14,3.70
2011,11,21,00,15,3.70
2011,11,21,00,16,3.70
2011,11,21,00,17,3.70
2011,11,21,00,18,3.70
2011,11,21,00,20,3.70
2011,11,21,00,21,3.70
2011,11,21,00,22,3.70
2011,11,21,00,23,3.70
2011,11,21,00,25,3.70
2011,11,21,00,26,3.60
2011,11,21,00,27,3.60
2011,11,21,00,28,3.60
2011,11,21,00,30,3.60
2011,11,21,00,31,3.60
2011,11,21,00,32,3.60
2011,11,21,00,33,3.60
2011,11,21,00,34,3.60
2011,11,21,00,35,3.60
2011,11,21,00,36,3.60
2011,11,21,00,37,3.60
2011,11,21,00,38,3.60
2011,11,21,00,40,3.60
2011,11,21,00,41,3.60
2011,11,21,00,42,3.50
2011,11,21,00,43,3.50
2011,11,21,00,44,3.60
2011,11,21,00,45,3.50
2011,11,21,00,46,3.50
2011,11,21,00,47,3.50
2011,11,21,00,49,3.50
2011,11,21,00,50,3.50
2011,11,21,00,51,3.50
2011,11,21,00,52,3.50
2011,11,21,00,53,3.50
2011,11,21,00,55,3.50
2011,11,21,00,56,3.50
2011,11,21,00,57,3.50
2011,11,21,00,58,3.50
2011,11,21,00,59,3.50
2011,11,21,01,01,3.60
2011,11,21,01,02,3.60
2011,11,21,01,03,3.60
2011,11,21,01,05,3.60
2011,11,21,01,06,3.60
2011,11,21,01,07,3.60
2011,11,21,01,08,3.60
2011,11,21,01,10,3.60
2011,11,21,01,11,3.60
2011,11,21,01,12,3.60
2011,11,21,01,13,3.60
2011,11,21,01,14,3.60
2011,11,21,01,15,3.70
2011,11,21,01,16,3.70
2011,11,21,01,17,3.70
2011,11,21,01,19,3.70
2011,11,21,01,20,3.70
2011,11,21,01,21,3.70
2011,11,21,01,22,3.70
2011,11,21,01,23,3.70
2011,11,21,01,24,3.70
2011,11,21,01,25,3.70
2011,11,21,01,26,3.80
2011,11,21,01,27,3.80
2011,11,21,01,28,3.80
2011,11,21,01,29,3.80
2011,11,21,01,30,3.80
2011,11,21,01,31,3.80
2011,11,21,01,32,3.80
2011,11,21,01,33,3.80
2011,11,21,01,35,3.70
2011,11,21,01,36,3.80
2011,11,21,01,37,3.80
2011,11,21,01,38,3.80
2011,11,21,01,39,3.80
2011,11,21,01,40,3.80
2011,11,21,01,41,3.80
2011,11,21,01,42,3.80
2011,11,21,01,43,3.80
2011,11,21,01,45,3.80
2011,11,21,01,46,3.80
2011,11,21,01,47,3.80
2011,11,21,01,48,3.80
2011,11,21,01,50,3.80
2011,11,21,01,51,3.80
2011,11,21,01,52,3.80
2011,11,21,01,53,3.80
2011,11,21,01,55,3.80
2011,11,21,01,56,3.80
2011,11,21,01,57,3.80
2011,11,21,01,58,3.80
2011,11,21,01,59,3.80
2011,11,21,02,00,3.90
2011,11,21,02,01,3.90
2011,11,21,02,02,3.90
2011,11,21,02,03,3.90
2011,11,21,02,04,3.90
2011,11,21,02,06,3.90
2011,11,21,02,07,3.90
2011,11,21,02,08,3.90
2011,11,21,02,09,3.90
2011,11,21,02,11,3.90
2011,11,21,02,12,3.90
2011,11,21,02,13,4.00
2011,11,21,02,14,4.00
2011,11,21,02,15,4.00
2011,11,21,02,17,4.00
2011,11,21,02,18,4.10
2011,11,21,02,19,4.10
2011,11,21,02,20,4.10
2011,11,21,02,21,4.10
2011,11,21,02,22,4.10
2011,11,21,02,23,4.10
2011,11,21,02,24,4.10
2011,11,21,02,26,4.10
2011,11,21,02,27,4.10
2011,11,21,02,28,4.10
2011,11,21,02,30,4.10
2011,11,21,02,31,4.20
2011,11,21,02,32,4.10
2011,11,21,02,34,4.10
2011,11,21,02,35,4.20
2011,11,21,02,36,4.20
2011,11,21,02,37,4.20
2011,11,21,02,38,4.20
2011,11,21,02,39,4.20
2011,11,21,02,40,4.20
2011,11,21,02,41,4.20
2011,11,21,02,42,4.20
2011,11,21,02,44,4.20
2011,11,21,02,45,4.20
2011,11,21,02,46,4.20
2011,11,21,02,47,4.30
2011,11,21,02,49,4.30
2011,11,21,02,50,4.30
2011,11,21,02,51,4.30
2011,11,21,02,52,4.30
2011,11,21,02,53,4.30
2011,11,21,02,54,4.30
2011,11,21,02,55,4.30
2011,11,21,02,56,4.30
2011,11,21,02,57,4.30
2011,11,21,02,59,4.30
2011,11,21,03,00,4.30
2011,11,21,03,01,4.30
2011,11,21,03,02,4.40
2011,11,21,03,03,4.40
2011,11,21,03,04,4.40
2011,11,21,03,05,4.40
2011,11,21,03,06,4.50
2011,11,21,03,08,4.50
2011,11,21,03,09,4.50
2011,11,21,03,10,4.60
2011,11,21,03,11,4.60
2011,11,21,03,13,4.60
2011,11,21,03,14,4.60
2011,11,21,03,15,4.60
2011,11,21,03,16,4.60
2011,11,21,03,18,4.60
2011,11,21,03,19,4.60
2011,11,21,03,20,4.60
2011,11,21,03,21,4.70
2011,11,21,03,23,4.70
2011,11,21,03,24,4.70
2011,11,21,03,25,4.70
2011,11,21,03,26,4.70
2011,11,21,03,28,4.70
2011,11,21,03,29,4.70
2011,11,21,03,30,4.70
2011,11,21,03,31,4.70
2011,11,21,03,33,4.70
2011,11,21,03,34,4.70
2011,11,21,03,35,4.70
2011,11,21,03,36,4.70
2011,11,21,03,38,4.70
2011,11,21,03,39,4.70
2011,11,21,03,40,4.70
2011,11,21,03,41,4.80
2011,11,21,03,43,4.80
2011,11,21,03,44,4.80
2011,11,21,03,45,4.80
2011,11,21,03,47,4.80
2011,11,21,03,48,4.80
2011,11,21,03,49,4.80
2011,11,21,03,50,4.90
2011,11,21,03,52,4.90
2011,11,21,03,53,4.90
2011,11,21,03,54,4.90
2011,11,21,03,55,4.90
2011,11,21,03,57,5.00
2011,11,21,03,58,5.00
2011,11,21,03,59,5.00
2011,11,21,04,00,5.10
2011,11,21,04,02,5.10
2011,11,21,04,03,5.10
2011,11,21,04,04,5.10
2011,11,21,04,05,5.10
2011,11,21,04,07,5.10
2011,11,21,04,08,5.10
2011,11,21,04,09,5.20
2011,11,21,04,10,5.20
2011,11,21,04,12,5.20
2011,11,21,04,13,5.20
2011,11,21,04,14,5.20
2011,11,21,04,15,5.20
2011,11,21,04,17,5.20
2011,11,21,04,18,5.20
2011,11,21,04,19,5.20
2011,11,21,04,20,5.30
2011,11,21,04,21,5.30
2011,11,21,04,23,5.30
2011,11,21,04,24,5.30
2011,11,21,04,25,5.30
2011,11,21,04,26,5.30
2011,11,21,04,28,5.30
2011,11,21,04,29,5.40
2011,11,21,04,30,5.40
2011,11,21,04,31,5.40
2011,11,21,04,32,5.40
2011,11,21,04,33,5.40
2011,11,21,04,34,5.40
2011,11,21,04,35,5.40
2011,11,21,04,36,5.50
2011,11,21,04,37,5.50
2011,11,21,04,38,5.50
2011,11,21,04,39,5.50
2011,11,21,04,40,5.60
2011,11,21,04,41,5.60
2011,11,21,04,42,5.60
2011,11,21,04,43,5.60
2011,11,21,04,44,5.70
2011,11,21,04,45,5.70
2011,11,21,04,46,5.70
2011,11,21,04,47,5.70
2011,11,21,04,48,5.70
2011,11,21,04,49,5.70
2011,11,21,04,50,5.70
2011,11,21,04,51,5.70
2011,11,21,04,52,5.70
2011,11,21,04,53,5.80
2011,11,21,04,54,5.80
2011,11,21,04,55,5.80
2011,11,21,04,56,5.80
2011,11,21,04,57,5.80
2011,11,21,04,58,5.80
2011,11,21,04,59,5.80
2011,11,21,05,00,5.80
2011,11,21,05,01,5.80
2011,11,21,05,02,5.80
2011,11,21,05,03,5.80
2011,11,21,05,04,5.80
2011,11,21,05,05,5.80
2011,11,21,05,06,5.80
2011,11,21,05,07,5.80
2011,11,21,05,08,5.80
2011,11,21,05,09,5.70
2011,11,21,05,10,5.70
2011,11,21,05,11,5.70
2011,11,21,05,12,5.70
2011,11,21,05,13,5.70
2011,11,21,05,14,5.60
2011,11,21,05,15,5.60
2011,11,21,05,16,5.60
2011,11,21,05,17,5.60
2011,11,21,05,18,5.60
2011,11,21,05,19,5.60
2011,11,21,05,20,5.60
2011,11,21,05,21,5.50
2011,11,21,05,22,5.50
2011,11,21,05,23,5.50
2011,11,21,05,24,5.50
2011,11,21,05,25,5.50
2011,11,21,05,26,5.50
2011,11,21,05,27,5.50
2011,11,21,05,28,5.50
2011,11,21,05,29,5.50
2011,11,21,05,30,5.40
2011,11,21,05,31,5.40
2011,11,21,05,32,5.40
2011,11,21,05,34,5.40
2011,11,21,05,35,5.40
2011,11,21,05,36,5.30
2011,11,21,05,37,5.30
2011,11,21,05,39,5.30
2011,11,21,05,40,5.30
2011,11,21,05,41,5.30
2011,11,21,05,43,5.30
2011,11,21,05,44,5.20
2011,11,21,05,45,5.20
2011,11,21,05,46,5.20
2011,11,21,05,48,5.20
2011,11,21,05,49,5.10
2011,11,21,05,50,5.10
2011,11,21,05,52,5.10
2011,11,21,05,53,5.00
2011,11,21,05,54,5.00
2011,11,21,05,55,5.00
2011,11,21,05,57,5.00
2011,11,21,05,58,4.90
2011,11,21,05,59,4.90
2011,11,21,06,01,4.90
2011,11,21,06,02,4.80
2011,11,21,06,03,4.80
2011,11,21,06,04,4.80
2011,11,21,06,06,4.80
2011,11,21,06,07,4.80
2011,11,21,06,08,4.80
2011,11,21,06,09,4.80
2011,11,21,06,11,4.80
2011,11,21,06,12,4.80
2011,11,21,06,13,4.80
2011,11,21,06,14,4.80
2011,11,21,06,16,4.80
2011,11,21,06,17,4.80
2011,11,21,06,18,4.80
2011,11,21,06,19,4.80
2011,11,21,06,21,4.80
2011,11,21,06,22,4.90
2011,11,21,06,23,4.90
2011,11,21,06,24,4.90
2011,11,21,06,26,5.00
2011,11,21,06,27,5.00
2011,11,21,06,28,5.10
2011,11,21,06,29,5.10
2011,11,21,06,30,5.20
2011,11,21,06,31,5.20
2011,11,21,06,32,5.20
2011,11,21,06,33,5.30
2011,11,21,06,34,5.30
2011,11,21,06,35,5.30
2011,11,21,06,36,5.30
2011,11,21,06,37,5.30
2011,11,21,06,38,5.30
2011,11,21,06,39,5.30
2011,11,21,06,41,5.40
2011,11,21,06,42,5.40
2011,11,21,06,43,5.40
2011,11,21,06,44,5.40
2011,11,21,06,45,5.40
2011,11,21,06,47,5.40
2011,11,21,06,48,5.50
2011,11,21,06,49,5.50
2011,11,21,06,50,5.60
2011,11,21,06,51,5.60
2011,11,21,06,53,5.60
2011,11,21,06,54,5.60
2011,11,21,06,55,5.60
2011,11,21,06,57,5.50
2011,11,21,06,58,5.50
2011,11,21,06,59,5.60
2011,11,21,07,00,5.50
2011,11,21,07,02,5.50
2011,11,21,07,03,5.50
2011,11,21,07,04,5.40
2011,11,21,07,05,5.40
2011,11,21,07,07,5.40
2011,11,21,07,08,5.40
2011,11,21,07,09,5.40
2011,11,21,07,10,5.40
2011,11,21,07,12,5.40
2011,11,21,07,13,5.40
2011,11,21,07,14,5.40
2011,11,21,07,15,5.40
2011,11,21,07,17,5.40
2011,11,21,07,18,5.40
2011,11,21,07,19,5.40
2011,11,21,07,20,5.40
2011,11,21,07,21,5.40
2011,11,21,07,22,5.40
2011,11,21,07,23,5.40
2011,11,21,07,24,5.40
2011,11,21,07,26,5.40
2011,11,21,07,27,5.40
2011,11,21,07,28,5.40
2011,11,21,07,29,5.40
2011,11,21,07,30,5.40
2011,11,21,07,32,5.40
2011,11,21,07,33,5.40
2011,11,21,07,34,5.40
2011,11,21,07,35,5.50
2011,11,21,07,36,5.50
2011,11,21,07,37,5.50
2011,11,21,07,38,5.50
2011,11,21,07,39,5.50
2011,11,21,07,40,5.50
2011,11,21,07,41,5.50
2011,11,21,07,42,5.50
2011,11,21,07,44,5.50
2011,11,21,07,45,5.50
2011,11,21,07,46,5.50
2011,11,21,07,47,5.50
2011,11,21,07,49,5.50
2011,11,21,07,50,5.50
2011,11,21,07,51,5.50
2011,11,21,07,52,5.40
2011,11,21,07,53,5.40
2011,11,21,07,54,5.40
2011,11,21,07,55,5.40
2011,11,21,07,56,5.40
2011,11,21,07,57,5.40
2011,11,21,07,59,5.40
2011,11,21,08,00,5.40
2011,11,21,08,01,5.40
2011,11,21,08,02,5.40
2011,11,21,08,04,5.40
2011,11,21,08,05,5.40
2011,11,21,08,06,5.50
2011,11,21,08,07,5.40
2011,11,21,08,09,5.50
2011,11,21,08,10,5.50
2011,11,21,08,11,5.50
2011,11,21,08,12,5.60
2011,11,21,08,14,5.60
2011,11,21,08,15,5.60
2011,11,21,08,16,5.70
2011,11,21,08,17,5.70
2011,11,21,08,19,5.70
2011,11,21,08,20,5.70
2011,11,21,08,21,5.70
2011,11,21,08,22,5.70
2011,11,21,08,24,5.80
2011,11,21,08,25,5.80
2011,11,21,08,26,5.80
2011,11,21,08,27,5.80
2011,11,21,08,28,5.80
2011,11,21,08,29,5.80
2011,11,21,08,30,5.80
2011,11,21,08,31,5.80
2011,11,21,08,33,5.80
2011,11,21,08,34,5.90
2011,11,21,08,35,5.90
2011,11,21,08,36,5.90
2011,11,21,08,37,5.90
2011,11,21,08,38,5.90
2011,11,21,08,39,5.90
2011,11,21,08,40,5.90
2011,11,21,08,41,6.00
2011,11,21,08,43,6.00
2011,11,21,08,44,6.00
2011,11,21,08,45,6.00
2011,11,21,08,46,6.10
2011,11,21,08,48,6.10
2011,11,21,08,49,6.10
2011,11,21,08,50,6.10
2011,11,21,08,51,6.10
2011,11,21,08,53,6.10
2011,11,21,08,54,6.20
2011,11,21,08,55,6.20
2011,11,21,08,56,6.30
2011,11,21,08,58,6.30
2011,11,21,08,59,6.40
2011,11,21,09,00,6.40
2011,11,21,09,02,6.50
2011,11,21,09,03,6.60
2011,11,21,09,04,6.70
2011,11,21,09,06,6.80
2011,11,21,09,07,6.80
2011,11,21,09,08,6.90
2011,11,21,09,09,6.90
2011,11,21,09,10,7.00
2011,11,21,09,12,7.10
2011,11,21,09,13,7.10
2011,11,21,09,14,7.20
2011,11,21,09,15,7.20
2011,11,21,09,16,7.20
2011,11,21,09,18,7.30
2011,11,21,09,19,7.30
2011,11,21,09,20,7.30
2011,11,21,09,21,7.30
2011,11,21,09,22,7.30
2011,11,21,09,23,7.30
2011,11,21,09,24,7.30
2011,11,21,09,25,7.30
2011,11,21,09,26,7.30
2011,11,21,09,27,7.20
2011,11,21,09,28,7.20
2011,11,21,09,29,7.20
2011,11,21,09,30,7.20
2011,11,21,09,31,7.30
2011,11,21,09,32,7.30
2011,11,21,09,33,7.30
2011,11,21,09,34,7.30
2011,11,21,09,35,7.30
2011,11,21,09,37,7.30
2011,11,21,09,38,7.30
2011,11,21,09,39,7.30
2011,11,21,09,40,7.30
2011,11,21,09,42,7.30
2011,11,21,09,43,7.40
2011,11,21,09,44,7.40
2011,11,21,09,45,7.40
2011,11,21,09,47,7.50
2011,11,21,09,48,7.60
2011,11,21,09,49,7.60
2011,11,21,09,50,7.70
2011,11,21,09,51,7.70
2011,11,21,09,53,7.80
2011,11,21,09,54,7.80
2011,11,21,09,55,7.80
2011,11,21,09,56,7.80
2011,11,21,09,58,7.80
2011,11,21,09,59,7.80
2011,11,21,10,00,7.80
2011,11,21,10,01,7.80
2011,11,21,10,03,7.80
2011,11,21,10,04,7.80
2011,11,21,10,05,7.80
2011,11,21,10,06,7.80
2011,11,21,10,08,7.80
2011,11,21,10,09,7.80
2011,11,21,10,10,7.80
2011,11,21,10,11,7.80
2011,11,21,10,13,7.80
2011,11,21,10,14,7.80
2011,11,21,10,15,7.80
2011,11,21,10,16,7.70
2011,11,21,10,18,7.70
2011,11,21,10,19,7.70
2011,11,21,10,20,7.70
2011,11,21,10,21,7.70
2011,11,21,10,23,7.70
2011,11,21,10,24,7.70
2011,11,21,10,25,7.80
2011,11,21,10,26,7.90
2011,11,21,10,28,7.90
2011,11,21,10,29,7.90
2011,11,21,10,30,7.90
2011,11,21,10,31,7.90
2011,11,21,10,33,7.90
2011,11,21,10,34,7.90
2011,11,21,10,35,7.90
2011,11,21,10,36,7.90
2011,11,21,10,38,7.90
2011,11,21,10,39,7.90
2011,11,21,10,40,7.90
2011,11,21,10,41,8.00
2011,11,21,10,43,8.00
2011,11,21,10,44,8.10
2011,11,21,10,45,8.10
2011,11,21,10,46,8.10
2011,11,21,10,47,8.00
2011,11,21,10,49,8.00
2011,11,21,10,50,8.00
2011,11,21,10,51,8.00
2011,11,21,10,52,7.90
2011,11,21,10,54,8.00
2011,11,21,10,55,8.10
2011,11,21,10,56,8.10
2011,11,21,10,57,8.10
2011,11,21,10,59,8.10
2011,11,21,11,00,8.00
2011,11,21,11,01,7.90
2011,11,21,11,02,7.90
2011,11,21,11,04,8.00
2011,11,21,11,05,7.90
2011,11,21,11,06,7.90
2011,11,21,11,07,7.90
2011,11,21,11,08,7.90
2011,11,21,11,09,7.90
2011,11,21,11,10,7.90
2011,11,21,11,11,7.90
2011,11,21,11,13,7.90
2011,11,21,11,14,8.00
2011,11,21,11,15,8.00
2011,11,21,11,16,8.00
2011,11,21,11,18,7.90
2011,11,21,11,19,8.00
2011,11,21,11,20,8.00
2011,11,21,11,21,8.00
2011,11,21,11,23,8.10
2011,11,21,11,24,8.10
2011,11,21,11,25,8.10
2011,11,21,11,26,8.10
2011,11,21,11,28,8.10
2011,11,21,11,29,8.00
2011,11,21,11,30,8.00
2011,11,21,11,31,8.00
2011,11,21,11,33,7.90
2011,11,21,11,34,7.90
2011,11,21,11,35,7.80
2011,11,21,11,36,7.80
2011,11,21,11,37,7.80
2011,11,21,11,38,7.80
2011,11,21,11,39,7.80
2011,11,21,11,40,7.80
2011,11,21,11,41,7.80
2011,11,21,11,43,7.80
2011,11,21,11,44,7.70
2011,11,21,11,45,7.60
2011,11,21,11,47,7.60
2011,11,21,11,48,7.60
2011,11,21,11,49,7.60
2011,11,21,11,50,7.60
2011,11,21,11,51,7.50
2011,11,21,11,52,7.50
2011,11,21,11,53,7.50
2011,11,21,11,54,7.60
2011,11,21,11,55,7.60
2011,11,21,11,56,7.60
2011,11,21,11,57,7.60
2011,11,21,11,58,7.60
2011,11,21,11,59,7.50
2011,11,21,12,00,7.50
2011,11,21,12,02,7.50
2011,11,21,12,03,7.50
2011,11,21,12,04,7.50
2011,11,21,12,05,7.50
2011,11,21,12,07,7.50
2011,11,21,12,08,7.60
2011,11,21,12,09,7.50
2011,11,21,12,10,7.50
2011,11,21,12,12,7.50
2011,11,21,12,13,7.40
2011,11,21,12,14,7.40
2011,11,21,12,15,7.40
2011,11,21,12,17,7.40
2011,11,21,12,18,7.30
2011,11,21,12,19,7.30
2011,11,21,12,20,7.30
2011,11,21,12,21,7.30
2011,11,21,12,22,7.30
2011,11,21,12,23,7.30
2011,11,21,12,24,7.30
2011,11,21,12,25,7.30
2011,11,21,12,27,7.30
2011,11,21,12,28,7.30
2011,11,21,12,29,7.30
2011,11,21,12,30,7.30
2011,11,21,12,32,7.30
2011,11,21,12,33,7.30
2011,11,21,12,34,7.30
2011,11,21,12,35,7.30
2011,11,21,12,37,7.30
2011,11,21,12,38,7.30
2011,11,21,12,39,7.30
2011,11,21,12,40,7.30
2011,11,21,12,41,7.30
2011,11,21,12,42,7.30
2011,11,21,12,43,7.30
2011,11,21,12,44,7.30
2011,11,21,12,45,7.30
2011,11,21,12,47,7.20
2011,11,21,12,48,7.20
2011,11,21,12,49,7.20
2011,11,21,12,50,7.20
2011,11,21,12,52,7.20
2011,11,21,12,53,7.20
2011,11,21,12,54,7.20
2011,11,21,12,55,7.30
2011,11,21,12,56,7.30
2011,11,21,12,57,7.30
2011,11,21,12,58,7.30
2011,11,21,12,59,7.30
2011,11,21,13,00,7.30
2011,11,21,13,02,7.30
2011,11,21,13,03,7.30
2011,11,21,13,04,7.20
2011,11,21,13,06,7.20
2011,11,21,13,07,7.20
2011,11,21,13,08,7.20
2011,11,21,13,09,7.20
2011,11,21,13,10,7.20
2011,11,21,13,11,7.20
2011,11,21,13,12,7.20
2011,11,21,13,13,7.20
2011,11,21,13,14,7.20
2011,11,21,13,15,7.20
2011,11,21,13,17,7.20
2011,11,21,13,18,7.10
2011,11,21,13,19,7.10
2011,11,21,13,20,7.10
2011,11,21,13,21,7.10
2011,11,21,13,22,7.10
2011,11,21,13,23,7.00
2011,11,21,13,24,7.00
2011,11,21,13,25,6.90
2011,11,21,13,27,6.90
2011,11,21,13,28,6.90
2011,11,21,13,29,6.90
2011,11,21,13,30,6.90
2011,11,21,13,32,6.90
2011,11,21,13,33,6.80
2011,11,21,13,34,6.80
2011,11,21,13,35,6.80
2011,11,21,13,37,6.80
2011,11,21,13,38,6.80
2011,11,21,13,39,6.80
2011,11,21,13,40,6.80
2011,11,21,13,42,6.70
2011,11,21,13,43,6.70
2011,11,21,13,44,6.70
2011,11,21,13,45,6.70
2011,11,21,13,47,6.70
2011,11,21,13,48,6.70
2011,11,21,13,49,6.70
2011,11,21,13,50,6.70
2011,11,21,13,51,6.70
2011,11,21,13,53,6.80
2011,11,21,13,54,6.80
2011,11,21,13,55,6.80
2011,11,21,13,57,6.80
2011,11,21,13,58,6.80
2011,11,21,13,59,6.80
2011,11,21,14,00,6.80
2011,11,21,14,01,6.80
2011,11,21,14,03,6.80
2011,11,21,14,04,6.80
2011,11,21,14,05,6.80
2011,11,21,14,07,6.80
2011,11,21,14,08,6.70
2011,11,21,14,09,6.70
2011,11,21,14,10,6.70
2011,11,21,14,11,6.70
2011,11,21,14,13,6.70
2011,11,21,14,14,6.70
2011,11,21,14,15,6.70
2011,11,21,14,16,6.70
2011,11,21,14,17,6.70
2011,11,21,14,18,6.70
2011,11,21,14,19,6.70
2011,11,21,14,20,6.70
2011,11,21,14,22,6.60
2011,11,21,14,23,6.60
2011,11,21,14,24,6.60
2011,11,21,14,26,6.60
2011,11,21,14,27,6.60
2011,11,21,14,28,6.60
2011,11,21,14,29,6.60
2011,11,21,14,31,6.60
2011,11,21,14,32,6.60
2011,11,21,14,33,6.60
2011,11,21,14,34,6.60
2011,11,21,14,36,6.60
2011,11,21,14,37,6.60
2011,11,21,14,38,6.60
2011,11,21,14,39,6.60
2011,11,21,14,41,6.60
2011,11,21,14,42,6.60
2011,11,21,14,43,6.50
2011,11,21,14,44,6.60
2011,11,21,14,46,6.60
2011,11,21,14,47,6.60
2011,11,21,14,48,6.60
2011,11,21,14,49,6.60
2011,11,21,14,51,6.60
2011,11,21,14,52,6.60
2011,11,21,14,53,6.60
2011,11,21,14,54,6.60
2011,11,21,14,55,6.60
2011,11,21,14,56,6.60
2011,11,21,14,57,6.60
2011,11,21,14,58,6.60
2011,11,21,14,59,6.60
2011,11,21,15,00,6.60
2011,11,21,15,01,6.70
2011,11,21,15,02,6.70
2011,11,21,15,03,6.70
2011,11,21,15,04,6.70
2011,11,21,15,06,6.70
2011,11,21,15,07,6.70
2011,11,21,15,08,6.70
2011,11,21,15,09,6.70
2011,11,21,15,11,6.70
2011,11,21,15,12,6.70
2011,11,21,15,13,6.70
2011,11,21,15,14,6.70
2011,11,21,15,15,6.70
2011,11,21,15,17,6.80
2011,11,21,15,18,6.80
2011,11,21,15,19,6.80
2011,11,21,15,20,6.80
2011,11,21,15,21,6.80
2011,11,21,15,23,6.80
2011,11,21,15,24,6.80
2011,11,21,15,25,6.80
2011,11,21,15,26,6.80
2011,11,21,15,28,6.80
2011,11,21,15,29,6.80
2011,11,21,15,30,6.80
2011,11,21,15,31,6.80
2011,11,21,15,32,6.80
2011,11,21,15,34,6.80
2011,11,21,15,35,6.80
2011,11,21,15,36,6.80
2011,11,21,15,37,6.80
2011,11,21,15,39,6.80
2011,11,21,15,40,6.80
2011,11,21,15,41,6.80
2011,11,21,15,43,6.90
2011,11,21,15,44,6.90
2011,11,21,15,45,6.90
2011,11,21,15,47,6.90
2011,11,21,15,48,6.90
2011,11,21,15,49,6.90
2011,11,21,15,50,6.90
2011,11,21,15,51,6.90
2011,11,21,15,52,6.90
2011,11,21,15,53,6.90
2011,11,21,15,54,6.90
2011,11,21,15,56,6.90
2011,11,21,15,57,6.90
2011,11,21,15,58,6.90
2011,11,21,15,59,6.90
2011,11,21,16,01,6.90
2011,11,21,16,02,7.00
2011,11,21,16,03,7.10
2011,11,21,16,04,7.10
2011,11,21,16,06,7.10
2011,11,21,16,07,7.20
2011,11,21,16,08,7.20
2011,11,21,16,10,7.20
2011,11,21,16,11,7.20
2011,11,21,16,12,7.30
2011,11,21,16,13,7.30
2011,11,21,16,14,7.30
2011,11,21,16,15,7.30
2011,11,21,16,16,7.30
2011,11,21,16,17,7.30
2011,11,21,16,18,7.30
2011,11,21,16,20,7.30
2011,11,21,16,21,7.40
2011,11,21,16,22,7.40
2011,11,21,16,23,7.40
2011,11,21,16,24,7.40
2011,11,21,16,26,7.40
2011,11,21,16,27,7.40
2011,11,21,16,28,7.40
2011,11,21,16,29,7.40
2011,11,21,16,30,7.40
2011,11,21,16,32,7.40
2011,11,21,16,33,7.50
2011,11,21,16,34,7.50
2011,11,21,16,35,7.50
2011,11,21,16,37,7.50
2011,11,21,16,38,7.60
2011,11,21,16,39,7.60
2011,11,21,16,40,7.60
2011,11,21,16,41,7.60
2011,11,21,16,42,7.60
2011,11,21,16,43,7.60
2011,11,21,16,44,7.60
2011,11,21,16,45,7.60
2011,11,21,16,46,7.60
2011,11,21,16,48,7.60
2011,11,21,16,49,7.60
2011,11,21,16,50,7.60
2011,11,21,16,51,7.60
2011,11,21,16,53,7.60
2011,11,21,16,54,7.70
2011,11,21,16,55,7.60
2011,11,21,16,56,7.70
2011,11,21,16,58,7.70
2011,11,21,16,59,7.70
2011,11,21,17,00,7.70
2011,11,21,17,01,7.70
2011,11,21,17,03,7.70
2011,11,21,17,04,7.70
2011,11,21,17,05,7.70
2011,11,21,17,06,7.70
2011,11,21,17,08,7.70
2011,11,21,17,09,7.70
2011,11,21,17,10,7.70
2011,11,21,17,12,7.70
2011,11,21,17,13,7.70
2011,11,21,17,14,7.70
2011,11,21,17,15,7.70
2011,11,21,17,17,7.70
2011,11,21,17,18,7.60
2011,11,21,17,19,7.60
2011,11,21,17,21,7.60
2011,11,21,17,22,7.60
2011,11,21,17,23,7.60
2011,11,21,17,25,7.60
2011,11,21,17,26,7.60
2011,11,21,17,27,7.60
2011,11,21,17,28,7.60
2011,11,21,17,29,7.60
2011,11,21,17,30,7.50
2011,11,21,17,32,7.60
2011,11,21,17,33,7.50
2011,11,21,17,34,7.50
2011,11,21,17,35,7.50
2011,11,21,17,37,7.60
2011,11,21,17,38,7.60
2011,11,21,17,39,7.60
2011,11,21,17,40,7.60
2011,11,21,17,42,7.60
2011,11,21,17,43,7.60
2011,11,21,17,44,7.60
2011,11,21,17,46,7.60
2011,11,21,17,47,7.70
2011,11,21,17,48,7.70
2011,11,21,17,49,7.70
2011,11,21,17,50,7.70
2011,11,21,17,51,7.70
2011,11,21,17,52,7.70
2011,11,21,17,53,7.70
2011,11,21,17,54,7.70
2011,11,21,17,55,7.70
2011,11,21,17,56,7.70
2011,11,21,17,57,7.70
2011,11,21,17,58,7.70
2011,11,21,17,59,7.70
2011,11,21,18,00,7.70
2011,11,21,18,01,7.70
2011,11,21,18,02,7.70
2011,11,21,18,03,7.80
2011,11,21,18,04,7.80
2011,11,21,18,06,7.80
2011,11,21,18,07,7.80
2011,11,21,18,08,7.80
2011,11,21,18,09,7.80
2011,11,21,18,11,7.80
2011,11,21,18,12,7.80
2011,11,21,18,13,7.90
2011,11,21,18,14,7.90
2011,11,21,18,15,7.90
2011,11,21,18,17,7.90
2011,11,21,18,18,7.90
2011,11,21,18,19,7.90
2011,11,21,18,20,7.90
2011,11,21,18,22,7.90
2011,11,21,18,23,7.90
2011,11,21,18,24,7.90
2011,11,21,18,25,8.00
2011,11,21,18,27,8.00
2011,11,21,18,28,8.00
2011,11,21,18,29,8.00
2011,11,21,18,30,8.00
2011,11,21,18,31,8.00
2011,11,21,18,32,8.00
2011,11,21,18,33,8.10
2011,11,21,18,34,8.10
2011,11,21,18,35,8.10
2011,11,21,18,36,8.10
2011,11,21,18,37,8.10
2011,11,21,18,38,8.10
2011,11,21,18,39,8.10
2011,11,21,18,41,8.10
2011,11,21,18,42,8.10
2011,11,21,18,43,8.20
2011,11,21,18,44,8.20
2011,11,21,18,46,8.20
2011,11,21,18,47,8.20
2011,11,21,18,48,8.20
2011,11,21,18,49,8.20
2011,11,21,18,50,8.20
2011,11,21,18,52,8.20
2011,11,21,18,53,8.20
2011,11,21,18,54,8.20
2011,11,21,18,55,8.20
2011,11,21,18,57,8.20
2011,11,21,18,58,8.20
2011,11,21,18,59,8.20
2011,11,21,19,00,8.20
2011,11,21,19,02,8.20
2011,11,21,19,03,8.20
2011,11,21,19,04,8.20
2011,11,21,19,05,8.20
2011,11,21,19,07,8.30
2011,11,21,19,08,8.30
2011,11,21,19,09,8.30
2011,11,21,19,11,8.30
2011,11,21,19,12,8.30
2011,11,21,19,13,8.30
2011,11,21,19,14,8.30
2011,11,21,19,15,8.30
2011,11,21,19,16,8.30
2011,11,21,19,17,8.30
2011,11,21,19,18,8.30
2011,11,21,19,19,8.30
2011,11,21,19,20,8.30
2011,11,21,19,21,8.30
2011,11,21,19,22,8.30
2011,11,21,19,23,8.30
2011,11,21,19,24,8.30
2011,11,21,19,25,8.30
2011,11,21,19,27,8.30
2011,11,21,19,28,8.30
2011,11,21,19,29,8.30
2011,11,21,19,30,8.30
2011,11,21,19,32,8.30
2011,11,21,19,33,8.30
2011,11,21,19,34,8.40
2011,11,21,19,35,8.40
2011,11,21,19,37,8.40
2011,11,21,19,38,8.40
2011,11,21,19,39,8.40
2011,11,21,19,41,8.40
2011,11,21,19,42,8.40
2011,11,21,19,43,8.40
2011,11,21,19,44,8.40
2011,11,21,19,46,8.40
2011,11,21,19,47,8.50
2011,11,21,19,48,8.50
2011,11,21,19,49,8.50
2011,11,21,19,51,8.50
2011,11,21,19,52,8.50
2011,11,21,19,53,8.50
2011,11,21,19,55,8.50
2011,11,21,19,56,8.50
2011,11,21,19,57,8.50
2011,11,21,19,59,8.60
2011,11,21,20,00,8.60
2011,11,21,20,01,8.60
2011,11,21,20,02,8.60
2011,11,21,20,04,8.60
2011,11,21,20,05,8.60
2011,11,21,20,06,8.60
2011,11,21,20,08,8.60
2011,11,21,20,09,8.60
2011,11,21,20,10,8.60
2011,11,21,20,11,8.60
2011,11,21,20,13,8.60
2011,11,21,20,14,8.60
2011,11,21,20,15,8.60
2011,11,21,20,16,8.60
2011,11,21,20,17,8.60
2011,11,21,20,18,8.60
2011,11,21,20,19,8.60
2011,11,21,20,20,8.60
2011,11,21,20,21,8.60
2011,11,21,20,23,8.60
2011,11,21,20,24,8.60
2011,11,21,20,25,8.60
2011,11,21,20,26,8.60
2011,11,21,20,28,8.60
2011,11,21,20,29,8.60
2011,11,21,20,30,8.60
2011,11,21,20,31,8.60
2011,11,21,20,32,8.60
2011,11,21,20,34,8.60
2011,11,21,20,35,8.60
2011,11,21,20,36,8.60
2011,11,21,20,37,8.60
2011,11,21,20,39,8.60
2011,11,21,20,40,8.60
2011,11,21,20,41,8.60
2011,11,21,20,42,8.60
2011,11,21,20,44,8.70
2011,11,21,20,45,8.70
2011,11,21,20,46,8.70
2011,11,21,20,47,8.70
2011,11,21,20,49,8.70
2011,11,21,20,50,8.70
2011,11,21,20,51,8.70
2011,11,21,20,52,8.70
2011,11,21,20,54,8.70
2011,11,21,20,55,8.70
2011,11,21,20,56,8.70
2011,11,21,20,58,8.70
2011,11,21,20,59,8.60
2011,11,21,21,00,8.60
2011,11,21,21,01,8.60
2011,11,21,21,02,8.60
2011,11,21,21,03,8.60
2011,11,21,21,04,8.60
2011,11,21,21,05,8.60
2011,11,21,21,06,8.60
2011,11,21,21,08,8.60
2011,11,21,21,09,8.60
2011,11,21,21,10,8.60
2011,11,21,21,11,8.60
2011,11,21,21,13,8.60
2011,11,21,21,14,8.60
2011,11,21,21,15,8.60
2011,11,21,21,16,8.60
2011,11,21,21,18,8.60
2011,11,21,21,19,8.60
2011,11,21,21,20,8.60
2011,11,21,21,21,8.60
2011,11,21,21,23,8.60
2011,11,21,21,24,8.50
2011,11,21,21,25,8.50
2011,11,21,21,26,8.50
2011,11,21,21,27,8.50
2011,11,21,21,29,8.50